Wind_Speed
86 86 90 90 95 100 102 104 105 109 112 109 114 105 101 89 81 71 68 57 42 33 26 16 15 15 15 22 22 19 20 24 28 30 32 34 30 27 27 32 30 35 36 44
96 98 96 95 99 104 100 105 107 106 108 105 102 97 85 77 70 66 62 49 37 28 19 9 11 13 19 23 24 27 29 28 28 28 26 32 40 38 27 25 35 42 47 53
96 96 99 99 100 101 106 103 105 101 102 98 91 80 70 69 65 63 53 43 31 24 15 7 12 20 23 23 26 31 34 34 32 34 31 33 39 40 33 39 39 46 49 53
83 86 93 92 97 99 95 98 98 97 88 83 75 66 63 64 63 57 45 38 29 20 13 11 17 20 24 27 31 34 35 37 36 37 32 37 46 46 44 45 41 46 44 42
89 92 97 98 93 97 95 86 82 84 77 73 65 59 61 63 61 50 39 35 27 19 14 14 16 24 27 31 37 40 39 39 39 43 38 42 47 53 46 50 50 46 43 42
83 84 80 83 86 83 83 81 77 69 65 61 57 58 60 61 56 45 35 31 26 20 17 19 19 27 32 36 43 45 49 48 48 45 41 41 45 53 48 49 49 48 47 44
81 81 82 83 78 78 77 72 64 62 59 57 57 57 60 60 51 41 32 27 25 25 19 21 21 26 34 40 47 50 50 52 53 47 46 45 46 50 53 56 60 57 56 56
82 81 85 80 76 75 74 68 63 65 62 60 56 58 60 57 47 38 31 28 25 26 24 25 28 30 37 42 47 52 54 56 53 51 51 49 49 49 49 48 48 55 59 62
79 79 80 77 77 75 76 66 64 63 62 59 56 58 58 53 43 35 28 28 25 26 28 30 33 35 36 42 46 50 55 56 57 55 53 52 54 52 51 50 50 47 47 49
80 79 77 78 76 78 71 66 63 63 61 58 58 59 54 47 40 32 28 27 27 27 31 32 36 39 41 45 47 48 51 58 57 56 55 55 54 53 52 53 54 55 54 55
80 79 81 80 80 81 71 66 62 63 59 57 60 59 48 43 37 30 26 28 28 28 31 35 39 40 41 43 45 47 48 48 53 52 56 59 58 56 56 55 55 55 56 57
84 86 83 82 79 74 64 65 65 62 60 61 61 53 46 38 34 28 26 28 29 29 32 39 40 42 42 44 44 43 46 50 50 45 45 51 57 58 58 58 59 60 60 60
85 83 84 82 75 69 66 65 63 66 65 64 57 47 42 37 31 26 26 28 29 29 32 38 42 46 46 46 44 45 45 46 47 47 46 47 55 58 61 62 63 64 64 63
87 87 84 76 70 69 65 65 65 64 61 55 49 45 40 35 28 25 26 26 26 29 32 37 41 45 47 47 46 46 46 48 48 47 46 44 47 54 60 62 61 60 60 60
81 77 73 71 68 66 66 65 60 55 58 52 48 44 38 31 26 25 23 22 24 28 32 36 40 44 46 48 50 50 49 48 48 46 42 40 43 48 53 56 57 57 58 58
76 73 69 68 67 64 63 63 59 59 53 51 47 42 33 27 25 22 20 20 23 26 30 33 36 42 43 46 49 49 51 51 50 46 42 42 43 46 48 50 52 54 55 56
73 71 70 69 68 66 63 59 57 51 50 49 45 36 29 25 22 19 17 19 22 25 29 32 34 35 39 41 42 44 48 49 48 46 44 43 43 44 45 47 49 51 52 54
72 70 68 64 61 59 58 52 50 49 48 46 38 30 25 22 19 17 18 19 22 24 26 29 32 34 36 36 35 38 38 41 42 43 44 44 43 44 45 47 48 50 51 53
68 64 64 61 58 54 47 47 46 44 40 37 31 26 23 20 18 18 19 20 21 23 25 26 28 29 30 32 35 35 37 39 41 41 42 43 43 44 45 45 46 48 49 50
63 60 57 57 54 47 46 41 40 37 35 30 27 24 22 19 18 17 17 18 19 21 23 24 25 27 28 29 32 35 36 37 38 40 40 40 42 43 45 46 47 48 50 51
58 57 55 53 48 43 37 39 36 31 28 27 25 23 20 18 16 16 16 16 17 18 18 20 23 25 25 28 30 31 33 34 36 37 39 41 43 45 47 49 50 51 52 54
52 50 48 44 39 33 34 33 30 28 27 26 25 21 18 17 17 16 15 14 14 13 15 17 18 20 21 23 25 27 29 31 34 36 38 41 43 45 47 49 51 53 54 56
42 39 38 35 30 32 33 31 27 25 26 25 22 19 17 17 14 15 13 11 10 11 13 15 16 17 19 20 22 23 25 27 29 32 35 37 39 42 44 46 48 51 53 55
35 33 31 29 33 34 28 21 25 30 28 24 20 19 17 13 12 11 9 8 10 10 11 13 14 15 16 17 19 20 21 22 24 25 28 30 33 37 40 42 45 48 50 52
33 31 33 36 33 25 27 31 30 28 24 22 21 20 15 13 11 9 9 9 8 8 8 9 9 11 12 13 13 13 14 16 18 21 24 27 31 34 37 41 45 48 51 53
32 35 34 28 24 28 32 31 29 27 25 24 22 18 15 13 11 9 10 10 7 5 4 3 2 3 4 5 7 10 14 17 20 24 27 31 34 37 40 44 47 50 52 54
35 32 27 27 31 33 33 31 29 27 26 24 22 20 17 13 14 10 7 6 5 4 1 1 2 4 7 10 12 14 18 21 25 27 30 32 35 38 41 45 48 49 52 53
Wind_Direction
261 264 267 269 274 277 277 281 286 287 291 295 299 302 304 304 307 316 317 315 314 313 307 318 306 275 234 188 170 187 184 186 180 176 172 165 163 183 185 192 198 203 201 220
261 264 268 270 271 274 279 286 289 290 293 294 298 301 302 304 311 317 315 313 314 308 301 308 262 215 197 187 181 168 169 173 173 167 165 173 173 188 177 194 193 198 201 214
261 265 267 271 272 277 280 284 287 291 293 296 299 301 302 306 313 314 313 311 309 302 287 254 237 205 188 185 182 178 172 169 167 164 166 174 185 187 197 201 204 206 211 219
261 264 264 270 272 277 283 284 288 290 294 297 298 301 304 308 312 311 311 307 300 293 274 234 223 204 189 184 181 181 175 170 171 175 182 187 187 190 194 203 200 207 215 224
259 263 267 272 276 276 280 284 288 294 294 298 300 304 306 307 310 309 308 303 294 283 260 227 216 195 194 183 185 184 179 179 179 186 192 192 198 190 197 205 206 211 216 222
259 264 269 274 280 280 281 286 291 291 296 300 304 304 305 306 308 307 305 298 287 273 250 217 204 205 195 191 188 190 185 185 192 192 195 198 198 200 205 207 212 215 213 218
262 268 273 277 277 280 284 290 291 294 294 301 303 305 304 303 305 305 301 291 275 266 245 217 193 206 200 198 195 195 196 198 198 194 199 203 205 205 208 213 216 220 223 228
266 270 275 276 278 283 287 293 293 293 295 299 303 305 302 302 304 303 296 284 264 257 239 217 189 192 204 201 204 205 202 204 208 204 205 204 210 212 214 219 221 223 228 232
266 271 273 275 281 284 287 290 291 296 295 297 301 303 300 301 302 299 289 279 258 250 237 217 196 195 205 210 208 210 210 212 213 214 212 209 212 217 218 221 224 225 225 230
268 271 272 276 280 286 289 290 293 296 295 298 301 298 299 298 299 294 285 275 257 243 238 222 202 199 200 210 213 217 215 217 221 221 219 217 218 220 223 223 227 230 232 236
267 269 271 275 280 285 285 289 292 294 293 298 299 296 298 297 297 291 281 267 251 241 237 225 210 206 203 207 214 221 224 223 226 230 227 225 226 227 228 230 231 235 238 240
266 268 271 277 282 282 285 289 292 293 293 297 295 294 295 299 296 287 278 262 249 238 232 225 217 206 206 207 212 217 224 232 237 240 239 235 233 234 234 236 237 240 243 246
266 269 274 276 279 280 282 287 290 292 293 293 291 293 296 298 292 283 272 258 249 239 234 230 222 212 209 208 207 214 219 225 230 233 233 234 236 236 238 239 242 244 247 251
266 271 271 272 276 279 281 286 288 289 289 292 292 294 298 296 287 277 264 254 246 241 236 230 229 223 217 210 209 216 219 224 227 229 228 226 227 234 237 241 244 246 248 250
266 268 268 272 275 278 282 283 285 293 294 292 292 295 295 291 281 271 258 250 244 237 233 230 231 228 223 218 215 215 220 225 229 233 233 233 233 236 238 240 242 244 245 247
263 265 267 271 276 279 282 287 289 289 288 289 291 294 290 281 273 262 256 248 244 237 231 231 231 232 230 227 225 222 223 225 229 233 234 237 238 241 243 244 244 244 245 245
262 266 268 271 274 276 279 281 282 281 282 283 288 286 282 274 266 262 258 247 244 235 228 227 231 236 236 237 237 233 233 233 233 233 235 238 241 244 248 250 250 250 251 252
262 264 266 269 271 273 275 275 276 277 278 279 280 276 269 262 258 257 253 242 236 231 229 229 230 233 238 244 247 245 244 243 241 238 239 242 244 247 251 253 255 256 255 255
260 263 265 267 268 267 270 271 271 271 271 271 269 263 256 252 250 247 242 234 229 230 230 231 236 240 241 243 245 247 247 248 250 250 249 250 251 253 255 256 257 258 258 258
257 260 262 264 264 266 265 264 263 263 263 260 255 249 244 241 243 242 239 234 232 233 235 238 240 242 241 241 241 243 246 248 250 252 254 255 257 259 261 262 263 263 264 263
255 257 258 258 258 257 257 256 255 254 249 243 239 235 237 239 240 240 234 234 236 236 235 236 237 238 242 243 244 246 247 248 250 252 254 255 256 257 258 260 261 262 263 264
246 247 248 249 250 251 246 244 240 234 231 227 226 227 230 233 235 239 243 243 243 245 246 247 245 243 242 241 242 245 247 249 250 251 253 255 256 258 258 260 262 264 265 266
238 238 239 240 240 235 231 230 225 222 218 217 218 219 222 230 238 244 246 251 255 250 247 245 245 244 245 244 242 243 245 248 251 253 255 258 260 263 264 265 267 268 269 270
227 227 227 225 222 223 221 210 203 204 206 207 207 212 219 226 237 241 251 255 248 247 241 238 239 240 244 247 250 253 256 260 264 267 268 269 271 273 275 276 276 276 275 276
215 213 214 214 215 206 199 198 199 200 199 197 200 210 211 221 227 236 244 243 237 237 235 228 229 236 242 250 259 265 269 270 272 272 273 274 275 276 277 278 279 279 278 278
202 205 208 207 193 190 193 192 189 189 192 193 198 203 203 206 218 204 212 214 189 184 193 192 216 237 254 261 263 267 269 271 273 275 277 278 280 282 282 282 282 282 283 283
201 201 192 182 185 188 186 184 185 186 187 189 194 194 190 193 193 181 186 184 173 161 172 254 236 252 273 281 279 280 282 286 289 294 295 294 295 294 293 292 290 290 289 288
Height
10382 10381 10380 10380 10381 10377 10372 10371 10369 10363 10360 10351 10342 10334 10324 10313 10300 10290 10280 10272 10266 10261 10257 10256 10255 10256 10257 10257 10260 10271 10277 10281 10287 10296 10303 10311 10322 10333 10343 10355 10365 10375 10387 10389
10367 10367 10366 10365 10364 10362 10359 10358 10354 10347 10344 10336 10328 10322 10311 10300 10292 10281 10272 10265 10260 10257 10254 10254 10253 10255 10258 10259 10263 10267 10275 10283 10290 10300 10309 10316 10326 10337 10344 10354 10361 10368 10377 10378
10350 10353 10352 10353 10350 10348 10346 10344 10339 10332 10327 10320 10315 10308 10299 10288 10282 10274 10266 10257 10255 10251 10251 10250 10253 10253 10258 10263 10265 10268 10273 10282 10291 10298 10307 10317 10326 10333 10341 10346 10354 10360 10365 10371
10334 10335 10335 10335 10335 10335 10331 10329 10324 10319 10314 10308 10302 10294 10286 10278 10272 10267 10258 10251 10249 10248 10248 10247 10250 10254 10258 10262 10265 10268 10274 10280 10290 10299 10306 10315 10320 10326 10332 10340 10349 10354 10362 10366
10317 10318 10318 10323 10322 10320 10318 10316 10310 10304 10297 10294 10289 10282 10274 10268 10263 10258 10251 10244 10242 10243 10244 10244 10249 10253 10256 10261 10265 10269 10274 10282 10290 10295 10302 10307 10315 10321 10327 10332 10341 10350 10358 10364
10301 10305 10307 10308 10305 10302 10299 10298 10297 10289 10285 10280 10277 10271 10263 10257 10253 10249 10243 10238 10236 10237 10239 10240 10245 10248 10253 10258 10262 10268 10268 10276 10283 10293 10301 10306 10311 10317 10326 10338 10340 10345 10350 10358
10289 10290 10291 10290 10290 10289 10287 10285 10280 10276 10271 10267 10264 10260 10253 10248 10244 10239 10235 10232 10229 10229 10233 10235 10239 10245 10249 10254 10257 10263 10269 10271 10276 10288 10294 10299 10305 10310 10320 10326 10330 10338 10344 10345
10275 10274 10274 10274 10275 10273 10272 10270 10267 10262 10258 10255 10253 10248 10243 10237 10234 10230 10226 10224 10223 10222 10225 10229 10232 10237 10243 10248 10253 10257 10262 10267 10274 10281 10286 10295 10299 10306 10314 10316 10322 10330 10334 10339
10258 10260 10259 10260 10260 10259 10257 10256 10253 10250 10246 10243 10240 10237 10233 10227 10223 10220 10216 10215 10216 10215 10216 10221 10226 10229 10239 10244 10247 10253 10259 10264 10269 10275 10282 10288 10291 10299 10306 10312 10316 10322 10327 10331
10244 10244 10245 10245 10245 10244 10243 10241 10241 10237 10233 10232 10227 10224 10222 10216 10212 10209 10207 10207 10207 10208 10209 10213 10219 10222 10228 10234 10240 10244 10252 10258 10261 10269 10275 10282 10287 10292 10299 10306 10310 10313 10318 10322
10229 10231 10229 10231 10231 10232 10229 10228 10227 10224 10221 10219 10214 10213 10209 10205 10202 10198 10198 10198 10197 10199 10201 10206 10210 10214 10221 10228 10234 10239 10244 10250 10255 10261 10268 10274 10279 10285 10290 10296 10300 10304 10309 10311
10213 10215 10215 10216 10216 10218 10217 10217 10213 10211 10210 10206 10202 10202 10197 10194 10190 10188 10188 10187 10188 10191 10195 10197 10202 10207 10212 10218 10224 10233 10239 10243 10247 10254 10260 10267 10271 10277 10282 10286 10290 10293 10297 10300
10198 10200 10201 10201 10202 10204 10204 10204 10201 10197 10197 10194 10191 10189 10186 10183 10180 10179 10178 10178 10179 10183 10186 10190 10193 10197 10202 10208 10216 10221 10227 10233 10239 10244 10250 10257 10262 10266 10270 10274 10278 10282 10285 10287
10182 10184 10186 10187 10189 10190 10191 10190 10188 10186 10184 10180 10179 10178 10176 10173 10170 10170 10170 10170 10172 10175 10177 10182 10186 10190 10194 10200 10206 10211 10218 10223 10228 10233 10238 10244 10250 10254 10256 10259 10263 10268 10271 10274
10166 10167 10170 10172 10175 10177 10178 10177 10175 10175 10171 10169 10168 10168 10166 10163 10162 10163 10163 10163 10165 10168 10170 10175 10179 10183 10188 10192 10197 10203 10208 10213 10219 10224 10231 10236 10241 10243 10244 10247 10250 10253 10256 10259
10149 10152 10156 10158 10161 10163 10163 10163 10165 10163 10161 10159 10158 10158 10157 10156 10156 10156 10157 10158 10159 10162 10165 10169 10173 10178 10182 10186 10191 10196 10199 10204 10209 10215 10221 10224 10228 10230 10232 10234 10237 10240 10242 10244
10133 10137 10142 10145 10149 10150 10151 10152 10153 10152 10151 10149 10149 10149 10149 10149 10150 10151 10151 10153 10154 10158 10161 10165 10169 10174 10177 10180 10185 10190 10192 10196 10201 10206 10211 10215 10217 10220 10222 10224 10225 10228 10230 10232
10119 10124 10129 10132 10135 10136 10137 10140 10141 10142 10142 10140 10141 10141 10142 10144 10145 10145 10146 10148 10151 10154 10157 10160 10163 10167 10170 10175 10181 10184 10187 10191 10194 10198 10202 10206 10208 10210 10212 10214 10215 10216 10217 10219
10105 10111 10114 10118 10119 10119 10128 10128 10130 10131 10132 10131 10133 10135 10136 10138 10139 10141 10142 10145 10148 10150 10153 10156 10159 10162 10166 10170 10173 10176 10178 10182 10186 10189 10193 10197 10199 10201 10202 10203 10203 10203 10203 10204
10092 10097 10102 10102 10102 10112 10114 10117 10119 10121 10122 10124 10127 10129 10130 10132 10135 10138 10140 10142 10144 10147 10149 10152 10155 10157 10159 10162 10165 10168 10171 10174 10177 10179 10183 10186 10188 10190 10190 10191 10190 10190 10189 10188
10079 10084 10085 10086 10093 10098 10104 10106 10109 10113 10115 10118 10120 10123 10125 10128 10131 10134 10135 10138 10140 10143 10146 10147 10149 10151 10154 10156 10158 10161 10163 10165 10168 10170 10172 10174 10175 10176 10177 10176 10175 10175 10173 10172
10063 10068 10073 10078 10084 10091 10094 10096 10101 10104 10108 10112 10115 10118 10122 10124 10127 10129 10132 10134 10136 10138 10140 10142 10143 10145 10147 10150 10152 10154 10156 10159 10160 10161 10162 10163 10163 10163 10164 10164 10162 10161 10159 10157
10053 10059 10064 10071 10079 10082 10084 10088 10094 10099 10104 10107 10111 10115 10119 10122 10125 10127 10128 10131 10133 10134 10136 10137 10139 10140 10142 10144 10146 10148 10149 10151 10151 10152 10153 10153 10153 10152 10152 10151 10149 10147 10145 10142
10045 10052 10059 10065 10069 10072 10080 10088 10091 10093 10098 10104 10109 10113 10116 10120 10122 10124 10126 10128 10129 10131 10132 10133 10135 10137 10138 10140 10142 10143 10144 10145 10146 10146 10146 10146 10145 10144 10142 10140 10136 10133 10130 10126
10039 10046 10052 10055 10061 10071 10076 10080 10085 10091 10097 10102 10107 10110 10116 10118 10121 10123 10125 10126 10127 10129 10130 10131 10133 10134 10136 10137 10138 10139 10140 10140 10140 10140 10139 10137 10135 10133 10130 10127 10123 10119 10115 10111
10034 10039 10045 10054 10063 10068 10072 10078 10084 10089 10095 10100 10105 10110 10115 10117 10120 10122 10124 10125 10126 10128 10129 10131 10132 10133 10135 10136 10136 10137 10137 10137 10136 10135 10132 10130 10127 10123 10119 10115 10109 10104 10099 10095
10029 10036 10046 10053 10060 10064 10070 10076 10082 10088 10094 10099 10104 10109 10113 10116 10119 10121 10123 10125 10127 10128 10130 10131 10132 10133 10134 10134 10134 10133 10132 10131 10129 10126 10122 10119 10115 10110 10105 10099 10093 10088 10081 10076